Time,TemperatureF,DewpointF,PressureIn,WindDirection,WindDirectionDegrees,WindSpeedMPH,WindSpeedGustMPH,Humidity,HourlyPrecipIn,Conditions,Clouds,dailyrainin,SolarRadiationWatts/m^2,SoftwareType,DateUTC
2013-05-08 00:11:00,36.0,27.0,-100.00,NNE,18,1.0,7.0,70,0.00,,,0.00,0.000000,,2013-05-08 08:11:00,
2013-05-08 00:21:00,36.0,27.0,-100.00,NNE,18,1.0,7.0,70,0.00,,,0.00,0.000000,,2013-05-08 08:21:00,
2013-05-08 00:31:00,36.0,27.0,-100.00,NNE,18,1.0,7.0,70,0.00,,,0.00,0.000000,,2013-05-08 08:31:00,
2013-05-08 00:42:00,36.0,27.0,-100.00,NNE,18,1.0,7.0,70,0.00,,,0.00,0.000000,,2013-05-08 08:42:00,
2013-05-08 00:51:00,36.0,27.0,-100.00,NNE,18,1.0,7.0,70,0.00,,,0.00,0.000000,,2013-05-08 08:51:00,
2013-05-08 01:11:00,35.0,28.0,-100.00,NNE,26,0.0,3.0,74,0.00,,,0.00,0.000000,,2013-05-08 09:11:00,
2013-05-08 01:21:00,35.0,28.0,-100.00,NNE,26,0.0,3.0,74,0.00,,,0.00,0.000000,,2013-05-08 09:21:00,
2013-05-08 01:32:00,35.0,28.0,-100.00,NNE,26,0.0,3.0,74,0.00,,,0.00,0.000000,,2013-05-08 09:32:00,
2013-05-08 01:42:00,35.0,28.0,-100.00,NNE,26,0.0,3.0,74,0.00,,,0.00,0.000000,,2013-05-08 09:42:00,
2013-05-08 01:52:00,35.0,28.0,-100.00,NNE,26,0.0,3.0,74,0.00,,,0.00,0.000000,,2013-05-08 09:52:00,
2013-05-08 02:12:00,35.0,30.0,-100.00,NNE,27,0.0,2.0,81,0.00,,,0.00,0.000000,,2013-05-08 10:12:00,
2013-05-08 02:22:00,35.0,30.0,-100.00,NNE,27,0.0,2.0,81,0.00,,,0.00,0.000000,,2013-05-08 10:22:00,
2013-05-08 02:33:00,35.0,30.0,-100.00,NNE,27,0.0,2.0,81,0.00,,,0.00,0.000000,,2013-05-08 10:33:00,
2013-05-08 02:42:00,35.0,30.0,-100.00,NNE,27,0.0,2.0,81,0.00,,,0.00,0.000000,,2013-05-08 10:42:00,
2013-05-08 02:52:00,35.0,30.0,-100.00,NNE,27,0.0,2.0,81,0.00,,,0.00,0.000000,,2013-05-08 10:52:00,
2013-05-08 03:11:00,34.0,29.0,-100.00,North,356,2.0,3.0,81,0.00,,,0.00,0.000000,,2013-05-08 11:11:00,
2013-05-08 03:22:00,34.0,29.0,-100.00,North,356,2.0,3.0,81,0.00,,,0.00,0.000000,,2013-05-08 11:22:00,
2013-05-08 03:32:00,34.0,29.0,-100.00,North,356,2.0,3.0,81,0.00,,,0.00,0.000000,,2013-05-08 11:32:00,
2013-05-08 03:41:00,34.0,29.0,-100.00,North,356,2.0,3.0,81,0.00,,,0.00,0.000000,,2013-05-08 11:41:00,
2013-05-08 03:51:00,34.0,29.0,-100.00,North,356,2.0,3.0,81,0.00,,,0.00,0.000000,,2013-05-08 11:51:00,
2013-05-08 04:11:00,33.0,27.0,-100.00,NW,311,3.0,6.0,78,0.00,,,0.00,0.000000,,2013-05-08 12:11:00,
2013-05-08 04:21:00,33.0,27.0,-100.00,NW,311,3.0,6.0,78,0.00,,,0.00,0.000000,,2013-05-08 12:21:00,
2013-05-08 04:31:00,33.0,27.0,-100.00,NW,311,3.0,6.0,78,0.00,,,0.00,0.000000,,2013-05-08 12:31:00,
2013-05-08 04:41:00,33.0,27.0,-100.00,NW,311,3.0,6.0,78,0.00,,,0.00,0.000000,,2013-05-08 12:41:00,
2013-05-08 04:51:00,33.0,27.0,-100.00,NW,311,3.0,6.0,78,0.00,,,0.00,0.000000,,2013-05-08 12:51:00,
2013-05-08 05:21:00,33.0,28.0,-100.00,NW,313,3.0,6.0,82,0.00,,,0.00,0.000000,,2013-05-08 13:21:00,
2013-05-08 05:32:00,33.0,28.0,-100.00,NW,313,3.0,6.0,82,0.00,,,0.00,0.000000,,2013-05-08 13:32:00,
2013-05-08 05:42:00,33.0,28.0,-100.00,NW,313,3.0,6.0,82,0.00,,,0.00,0.000000,,2013-05-08 13:42:00,
2013-05-08 05:52:00,33.0,28.0,-100.00,NW,313,3.0,6.0,82,0.00,,,0.00,0.000000,,2013-05-08 13:52:00,
2013-05-08 06:11:00,31.0,26.0,-100.00,NW,321,3.0,5.0,81,0.00,,,0.00,2.000000,,2013-05-08 14:11:00,
2013-05-08 06:21:00,31.0,26.0,-100.00,NW,321,3.0,5.0,81,0.00,,,0.00,2.000000,,2013-05-08 14:21:00,
2013-05-08 06:31:00,31.0,26.0,-100.00,NW,321,3.0,5.0,81,0.00,,,0.00,2.000000,,2013-05-08 14:31:00,
2013-05-08 06:42:00,31.0,26.0,-100.00,NW,321,3.0,5.0,81,0.00,,,0.00,2.000000,,2013-05-08 14:42:00,
2013-05-08 06:51:00,31.0,26.0,-100.00,NW,321,3.0,5.0,81,0.00,,,0.00,2.000000,,2013-05-08 14:51:00,
2013-05-08 07:11:00,34.0,28.0,-100.00,NNW,338,2.0,5.0,80,0.00,,,0.00,36.000000,,2013-05-08 15:11:00,
2013-05-08 07:21:00,34.0,28.0,-100.00,NNW,338,2.0,5.0,80,0.00,,,0.00,36.000000,,2013-05-08 15:21:00,
2013-05-08 07:33:00,34.0,28.0,-100.00,NNW,338,2.0,5.0,80,0.00,,,0.00,36.000000,,2013-05-08 15:33:00,
2013-05-08 07:42:00,34.0,28.0,-100.00,NNW,338,2.0,5.0,80,0.00,,,0.00,36.000000,,2013-05-08 15:42:00,
2013-05-08 07:52:00,34.0,28.0,-100.00,NNW,338,2.0,5.0,80,0.00,,,0.00,36.000000,,2013-05-08 15:52:00,
2013-05-08 08:23:00,38.0,28.0,-100.00,ENE,63,2.0,5.0,67,0.00,,,-99.99,147.000000,,2013-05-08 16:23:00,
2013-05-08 08:33:00,38.0,28.0,-100.00,ENE,63,2.0,5.0,67,0.00,,,-99.99,147.000000,,2013-05-08 16:33:00,
2013-05-08 08:42:00,38.0,28.0,-100.00,ENE,63,2.0,5.0,67,0.00,,,-99.99,147.000000,,2013-05-08 16:42:00,
2013-05-08 08:52:00,38.0,28.0,-100.00,ENE,63,2.0,5.0,67,0.00,,,-99.99,147.000000,,2013-05-08 16:52:00,
2013-05-08 09:12:00,40.0,28.0,-100.00,ENE,77,3.0,6.0,63,0.00,,,-99.99,293.000000,,2013-05-08 17:12:00,
2013-05-08 09:22:00,40.0,28.0,-100.00,ENE,77,3.0,6.0,63,0.00,,,-99.99,293.000000,,2013-05-08 17:22:00,
2013-05-08 09:31:00,40.0,28.0,-100.00,ENE,77,3.0,6.0,63,0.00,,,-99.99,293.000000,,2013-05-08 17:31:00,
2013-05-08 09:41:00,40.0,28.0,-100.00,ENE,77,3.0,6.0,63,0.00,,,-99.99,293.000000,,2013-05-08 17:41:00,
2013-05-08 09:52:00,40.0,28.0,-100.00,ENE,77,3.0,6.0,63,0.00,,,-99.99,293.000000,,2013-05-08 17:52:00,
2013-05-08 10:21:00,42.0,30.0,-100.00,East,82,4.0,8.0,61,0.00,,,-99.99,448.000000,,2013-05-08 18:21:00,
2013-05-08 10:31:00,42.0,30.0,-100.00,East,82,4.0,8.0,61,0.00,,,-99.99,448.000000,,2013-05-08 18:31:00,
2013-05-08 10:42:00,42.0,30.0,-100.00,East,82,4.0,8.0,61,0.00,,,-99.99,448.000000,,2013-05-08 18:42:00,
2013-05-08 10:51:00,42.0,30.0,-100.00,East,82,4.0,8.0,61,0.00,,,-99.99,448.000000,,2013-05-08 18:51:00,
2013-05-08 11:21:00,44.0,30.0,-100.00,East,99,4.0,9.0,58,0.00,,,0.00,599.000000,,2013-05-08 19:21:00,
2013-05-08 11:32:00,44.0,30.0,-100.00,East,99,4.0,9.0,58,0.00,,,0.00,599.000000,,2013-05-08 19:32:00,
2013-05-08 11:41:00,44.0,30.0,-100.00,East,99,4.0,9.0,58,0.00,,,0.00,599.000000,,2013-05-08 19:41:00,
2013-05-08 11:52:00,44.0,30.0,-100.00,East,99,4.0,9.0,58,0.00,,,0.00,599.000000,,2013-05-08 19:52:00,
2013-05-08 12:11:00,44.0,28.0,-100.00,ESE,110,4.0,9.0,54,0.00,,,0.00,728.000000,,2013-05-08 20:11:00,
2013-05-08 12:22:00,44.0,28.0,-100.00,ESE,110,4.0,9.0,54,0.00,,,0.00,728.000000,,2013-05-08 20:22:00,
2013-05-08 12:32:00,44.0,28.0,-100.00,ESE,110,4.0,9.0,54,0.00,,,0.00,728.000000,,2013-05-08 20:32:00,
2013-05-08 12:41:00,44.0,28.0,-100.00,ESE,110,4.0,9.0,54,0.00,,,0.00,728.000000,,2013-05-08 20:41:00,
2013-05-08 12:51:00,44.0,28.0,-100.00,ESE,110,4.0,9.0,54,0.00,,,0.00,728.000000,,2013-05-08 20:51:00,
2013-05-08 13:21:00,45.0,29.0,-100.00,ESE,121,6.0,10.0,53,0.00,,,0.00,814.000000,,2013-05-08 21:21:00,
2013-05-08 13:32:00,45.0,29.0,-100.00,ESE,121,6.0,10.0,53,0.00,,,0.00,814.000000,,2013-05-08 21:32:00,
2013-05-08 13:43:00,45.0,29.0,-100.00,ESE,121,6.0,10.0,53,0.00,,,0.00,814.000000,,2013-05-08 21:43:00,
2013-05-08 13:52:00,45.0,29.0,-100.00,ESE,121,6.0,10.0,53,0.00,,,0.00,814.000000,,2013-05-08 21:52:00,
2013-05-08 14:12:00,48.0,29.0,-100.00,ESE,113,6.0,10.0,47,0.00,,,0.00,866.000000,,2013-05-08 22:12:00,
2013-05-08 14:22:00,48.0,29.0,-100.00,ESE,113,6.0,10.0,47,0.00,,,0.00,866.000000,,2013-05-08 22:22:00,
2013-05-08 14:33:00,48.0,29.0,-100.00,ESE,113,6.0,10.0,47,0.00,,,0.00,866.000000,,2013-05-08 22:33:00,
2013-05-08 14:42:00,48.0,29.0,-100.00,ESE,113,6.0,10.0,47,0.00,,,0.00,866.000000,,2013-05-08 22:42:00,
2013-05-08 14:52:00,48.0,29.0,-100.00,ESE,113,6.0,10.0,47,0.00,,,0.00,866.000000,,2013-05-08 22:52:00,
2013-05-08 15:11:00,49.0,29.0,-100.00,SE,144,6.0,9.0,45,0.00,,,0.00,859.000000,,2013-05-08 23:11:00,
2013-05-08 15:22:00,49.0,29.0,-100.00,SE,144,6.0,9.0,45,0.00,,,0.00,859.000000,,2013-05-08 23:22:00,
2013-05-08 15:32:00,49.0,29.0,-100.00,SE,144,6.0,9.0,45,0.00,,,0.00,859.000000,,2013-05-08 23:32:00,
2013-05-08 15:42:00,49.0,29.0,-100.00,SE,144,6.0,9.0,45,0.00,,,0.00,859.000000,,2013-05-08 23:42:00,
2013-05-08 15:52:00,49.0,29.0,-100.00,SE,144,6.0,9.0,45,0.00,,,0.00,859.000000,,2013-05-08 23:52:00,
2013-05-08 16:21:00,49.0,29.0,-100.00,SE,144,5.0,9.0,45,0.00,,,0.00,820.000000,,2013-05-09 00:21:00,
2013-05-08 16:32:00,49.0,29.0,-100.00,SE,144,5.0,9.0,45,0.00,,,0.00,820.000000,,2013-05-09 00:32:00,
2013-05-08 16:42:00,49.0,29.0,-100.00,SE,144,5.0,9.0,45,0.00,,,0.00,820.000000,,2013-05-09 00:42:00,
2013-05-08 16:51:00,49.0,29.0,-100.00,SE,144,5.0,9.0,45,0.00,,,0.00,820.000000,,2013-05-09 00:51:00,
2013-05-08 17:11:00,49.0,28.0,-100.00,SSE,151,5.0,9.0,44,0.00,,,0.00,716.000000,,2013-05-09 01:11:00,
2013-05-08 17:22:00,49.0,28.0,-100.00,SSE,151,5.0,9.0,44,0.00,,,0.00,716.000000,,2013-05-09 01:22:00,
2013-05-08 17:32:00,49.0,28.0,-100.00,SSE,151,5.0,9.0,44,0.00,,,0.00,716.000000,,2013-05-09 01:32:00,
2013-05-08 17:42:00,49.0,28.0,-100.00,SSE,151,5.0,9.0,44,0.00,,,0.00,716.000000,,2013-05-09 01:42:00,
2013-05-08 17:52:00,49.0,28.0,-100.00,SSE,151,5.0,9.0,44,0.00,,,0.00,716.000000,,2013-05-09 01:52:00,
2013-05-08 18:21:00,51.0,29.0,-100.00,North,2,4.0,10.0,43,0.00,,,0.00,580.000000,,2013-05-09 02:21:00,
2013-05-08 18:32:00,51.0,29.0,-100.00,North,2,4.0,10.0,43,0.00,,,0.00,580.000000,,2013-05-09 02:32:00,
2013-05-08 18:41:00,51.0,29.0,-100.00,North,2,4.0,10.0,43,0.00,,,0.00,580.000000,,2013-05-09 02:41:00,
2013-05-08 18:52:00,51.0,29.0,-100.00,North,2,4.0,10.0,43,0.00,,,0.00,580.000000,,2013-05-09 02:52:00,
2013-05-08 19:21:00,50.0,27.0,-100.00,NNW,329,5.0,10.0,41,0.00,,,0.00,409.000000,,2013-05-09 03:21:00,
2013-05-08 19:33:00,50.0,27.0,-100.00,NNW,329,5.0,10.0,41,0.00,,,0.00,409.000000,,2013-05-09 03:33:00,
2013-05-08 19:43:00,50.0,27.0,-100.00,NNW,329,5.0,10.0,41,0.00,,,0.00,409.000000,,2013-05-09 03:43:00,
2013-05-08 19:52:00,50.0,27.0,-100.00,NNW,329,5.0,10.0,41,0.00,,,0.00,409.000000,,2013-05-09 03:52:00,
2013-05-08 20:23:00,48.0,28.0,-100.00,South,183,3.0,7.0,46,0.00,,,0.00,195.000000,,2013-05-09 04:23:00,
2013-05-08 20:32:00,48.0,28.0,-100.00,South,183,3.0,7.0,46,0.00,,,0.00,195.000000,,2013-05-09 04:32:00,
2013-05-08 20:43:00,48.0,28.0,-100.00,South,183,3.0,7.0,46,0.00,,,0.00,195.000000,,2013-05-09 04:43:00,
2013-05-08 20:52:00,48.0,28.0,-100.00,South,183,3.0,7.0,46,0.00,,,0.00,195.000000,,2013-05-09 04:52:00,
2013-05-08 21:12:00,45.0,29.0,-100.00,SSE,163,2.0,6.0,54,0.00,,,0.00,122.000000,,2013-05-09 05:12:00,
2013-05-08 21:22:00,45.0,29.0,-100.00,SSE,163,2.0,6.0,54,0.00,,,0.00,122.000000,,2013-05-09 05:22:00,
2013-05-08 21:32:00,45.0,29.0,-100.00,SSE,163,2.0,6.0,54,0.00,,,0.00,122.000000,,2013-05-09 05:32:00,
2013-05-08 21:42:00,45.0,29.0,-100.00,SSE,163,2.0,6.0,54,0.00,,,0.00,122.000000,,2013-05-09 05:42:00,
2013-05-08 21:51:00,45.0,29.0,-100.00,SSE,163,2.0,6.0,54,0.00,,,0.00,122.000000,,2013-05-09 05:51:00,
2013-05-08 22:11:00,41.0,29.0,-100.00,WNW,292,0.0,4.0,61,0.00,,,0.00,40.000000,,2013-05-09 06:11:00,
2013-05-08 22:21:00,41.0,29.0,-100.00,WNW,292,0.0,4.0,61,0.00,,,0.00,40.000000,,2013-05-09 06:21:00,
2013-05-08 22:32:00,41.0,29.0,-100.00,WNW,292,0.0,4.0,61,0.00,,,0.00,40.000000,,2013-05-09 06:32:00,
2013-05-08 22:42:00,41.0,29.0,-100.00,WNW,292,0.0,4.0,61,0.00,,,0.00,40.000000,,2013-05-09 06:42:00,
2013-05-08 22:52:00,41.0,29.0,-100.00,WNW,292,0.0,4.0,61,0.00,,,0.00,40.000000,,2013-05-09 06:52:00,
2013-05-08 23:12:00,37.0,27.0,-100.00,WNW,292,0.0,2.0,68,0.00,,,0.00,3.000000,,2013-05-09 07:12:00,
2013-05-08 23:21:00,37.0,27.0,-100.00,WNW,292,0.0,2.0,68,0.00,,,0.00,3.000000,,2013-05-09 07:21:00,
2013-05-08 23:32:00,37.0,27.0,-100.00,WNW,292,0.0,2.0,68,0.00,,,0.00,3.000000,,2013-05-09 07:32:00,
2013-05-08 23:42:00,37.0,27.0,-100.00,WNW,292,0.0,2.0,68,0.00,,,0.00,3.000000,,2013-05-09 07:42:00,
2013-05-08 23:52:00,37.0,27.0,-100.00,WNW,292,0.0,2.0,68,0.00,,,0.00,3.000000,,2013-05-09 07:52:00,